ALT15 KDEN-KORD

Flight info

Callsign ALT15
Flight time 1h 44m
Altitude 35000
Route EMMYS8 ZIRKL PWE IRK SHAIN2
Aircraft B77L/H-SDE1E2E3FGHIJ2J3J4J5M1RWXY/LB1D1

Departure

Time 2026-05-04 18:37
Airport Denver International Airport (KDEN)

Arrival

Time 2026-05-04 20:21
Airport Chicago O'Hare International Airport (KORD)
Time Latitude Longitude Altitude Speed Heading
2026-05-04 18:15 39.83009 -104.67670 5390 ft 0 kts 90°
2026-05-04 18:26 39.83009 -104.67668 5390 ft 0 kts 90°
2026-05-04 18:26 39.83010 -104.67645 5391 ft 4 kts 87°
2026-05-04 18:26 39.83012 -104.67580 5393 ft 9 kts 88°
2026-05-04 18:26 39.83016 -104.67474 5396 ft 14 kts 88°
2026-05-04 18:27 39.82996 -104.67329 5399 ft 18 kts 107°
2026-05-04 18:27 39.82954 -104.67140 5401 ft 24 kts 107°
2026-05-04 18:27 39.82939 -104.66907 5403 ft 27 kts 90°
2026-05-04 18:27 39.82939 -104.66663 5411 ft 26 kts 90°
2026-05-04 18:28 39.82938 -104.66433 5420 ft 24 kts 90°
2026-05-04 18:28 39.82962 -104.66280 5422 ft 15 kts 32°
2026-05-04 18:28 39.83080 -104.66267 5420 ft 19 kts 360°
2026-05-04 18:28 39.83223 -104.66269 5419 ft 22 kts 360°
2026-05-04 18:29 39.83390 -104.66263 5414 ft 26 kts
2026-05-04 18:29 39.83586 -104.66265 5412 ft 29 kts 359°
2026-05-04 18:29 39.83796 -104.66263 5412 ft 30 kts
2026-05-04 18:29 39.84014 -104.66251 5410 ft 32 kts
2026-05-04 18:30 39.84502 -104.66258 5401 ft 36 kts
2026-05-04 18:30 39.84749 -104.66251 5406 ft 34 kts
2026-05-04 18:30 39.84983 -104.66245 5412 ft 32 kts 359°
2026-05-04 18:31 39.85171 -104.66259 5420 ft 18 kts 338°
2026-05-04 18:31 39.85207 -104.66404 5420 ft 18 kts 270°
2026-05-04 18:31 39.85226 -104.66580 5417 ft 20 kts 282°
2026-05-04 18:31 39.85252 -104.66768 5414 ft 21 kts 274°
2026-05-04 18:32 39.85258 -104.66977 5411 ft 23 kts 271°
2026-05-04 18:32 39.85262 -104.67197 5406 ft 25 kts 269°
2026-05-04 18:32 39.85266 -104.67447 5395 ft 29 kts 272°
2026-05-04 18:32 39.85276 -104.67743 5377 ft 34 kts 272°
2026-05-04 18:33 39.85279 -104.67956 5362 ft 24 kts 263°
2026-05-04 18:33 39.85240 -104.68184 5346 ft 28 kts 256°
2026-05-04 18:33 39.85206 -104.68451 5329 ft 31 kts 269°
2026-05-04 18:33 39.85206 -104.68742 5313 ft 33 kts 266°
2026-05-04 18:34 39.85195 -104.69042 5302 ft 32 kts 270°
2026-05-04 18:34 39.85198 -104.69316 5303 ft 28 kts 271°
2026-05-04 18:34 39.85202 -104.69485 5309 ft 3 kts 270°
2026-05-04 18:34 39.85202 -104.69486 5309 ft 0 kts 270°
2026-05-04 18:35 39.85202 -104.69505 5309 ft 5 kts 270°
2026-05-04 18:35 39.85202 -104.69584 5312 ft 11 kts 273°
2026-05-04 18:36 39.85275 -104.69665 5311 ft 20 kts 356°
2026-05-04 18:36 39.85461 -104.69662 5301 ft 33 kts
2026-05-04 18:36 39.85831 -104.69655 5286 ft 82 kts
2026-05-04 18:36 39.86673 -104.69646 5287 ft 156 kts 359°
2026-05-04 18:37 39.87880 -104.69576 5755 ft 179 kts
2026-05-04 18:37 39.89153 -104.69519 6426 ft 194 kts 357°
2026-05-04 18:37 39.90442 -104.69453 7253 ft 190 kts
2026-05-04 18:37 39.91760 -104.68912 7628 ft 209 kts 25°
2026-05-04 18:38 39.92931 -104.67698 7999 ft 227 kts 46°
2026-05-04 18:38 39.93727 -104.65828 8328 ft 247 kts 72°
2026-05-04 18:38 39.94162 -104.63624 8705 ft 261 kts 71°
2026-05-04 18:38 39.94649 -104.61298 9241 ft 271 kts 78°
2026-05-04 18:39 39.94882 -104.58802 9741 ft 288 kts 84°
2026-05-04 18:39 39.95016 -104.56119 9993 ft 303 kts 86°
2026-05-04 18:39 39.95105 -104.53377 10015 ft 305 kts 86°
2026-05-04 18:39 39.95183 -104.50641 10018 ft 304 kts 86°
2026-05-04 18:40 39.95260 -104.47896 10019 ft 304 kts 86°
2026-05-04 18:40 39.95337 -104.45140 10020 ft 304 kts 86°
2026-05-04 18:40 39.95415 -104.42386 10019 ft 304 kts 86°
2026-05-04 18:40 39.95312 -104.39655 10014 ft 304 kts 99°
2026-05-04 18:41 39.94788 -104.36858 10346 ft 328 kts 104°
2026-05-04 18:41 39.94161 -104.33953 10893 ft 345 kts 105°
2026-05-04 18:41 39.93487 -104.30856 11473 ft 362 kts 105°
2026-05-04 18:41 39.92794 -104.27652 11946 ft 382 kts 105°
2026-05-04 18:42 39.92055 -104.24228 12003 ft 395 kts 105°
2026-05-04 18:42 39.91375 -104.20815 12013 ft 395 kts 101°
2026-05-04 18:42 39.90853 -104.17186 12488 ft 413 kts 100°
2026-05-04 18:42 39.90351 -104.13586 13783 ft 407 kts 100°
2026-05-04 18:43 39.89848 -104.09985 14978 ft 405 kts 100°
2026-05-04 18:43 39.89343 -104.06390 15848 ft 412 kts 101°
2026-05-04 18:43 39.88828 -104.02732 16650 ft 419 kts 101°
2026-05-04 18:43 39.88295 -103.98962 17492 ft 426 kts 101°
2026-05-04 18:44 39.87760 -103.95182 18388 ft 430 kts 101°
2026-05-04 18:44 39.87434 -103.92638 18882 ft 435 kts 97°
2026-05-04 18:44 39.87403 -103.87350 19889 ft 444 kts 85°
2026-05-04 18:44 39.87674 -103.83330 20596 ft 451 kts 84°
2026-05-04 18:45 39.87964 -103.79242 21413 ft 456 kts 84°
2026-05-04 18:45 39.88251 -103.75166 22178 ft 461 kts 84°
2026-05-04 18:45 39.88580 -103.70941 22814 ft 469 kts 82°
2026-05-04 18:45 39.89071 -103.66724 23464 ft 475 kts 81°
2026-05-04 18:46 39.89580 -103.62500 24227 ft 479 kts 80°
2026-05-04 18:46 39.90090 -103.58210 24873 ft 485 kts 80°
2026-05-04 18:46 39.90600 -103.53860 25435 ft 492 kts 80°
2026-05-04 18:46 39.91117 -103.49410 26048 ft 497 kts 80°
2026-05-04 18:47 39.91624 -103.45001 26649 ft 502 kts 80°
2026-05-04 18:47 39.92145 -103.40437 27218 ft 508 kts 80°
2026-05-04 18:47 39.92662 -103.35881 27811 ft 514 kts 80°
2026-05-04 18:47 39.93179 -103.31300 28359 ft 521 kts 81°
2026-05-04 18:48 39.93708 -103.26582 28862 ft 528 kts 80°
2026-05-04 18:48 39.94237 -103.21846 29505 ft 532 kts 80°
2026-05-04 18:48 39.94763 -103.17113 30334 ft 531 kts 80°
2026-05-04 18:48 39.95284 -103.12401 31013 ft 531 kts 79°
2026-05-04 18:49 39.95811 -103.07624 31437 ft 537 kts 79°
2026-05-04 18:49 39.96345 -103.02767 31675 ft 546 kts 79°
2026-05-04 18:49 39.96883 -102.97845 32093 ft 550 kts 79°
2026-05-04 18:49 39.97418 -102.92928 32595 ft 552 kts 78°
2026-05-04 18:50 39.97955 -102.87971 33064 ft 555 kts 79°
2026-05-04 18:50 39.98490 -102.83019 33403 ft 559 kts 78°
2026-05-04 18:50 39.99027 -102.78024 33678 ft 566 kts 77°
2026-05-04 18:50 39.99578 -102.72881 34087 ft 570 kts 78°
2026-05-04 18:51 40.00116 -102.67833 34672 ft 570 kts 78°
2026-05-04 18:51 40.00665 -102.62656 34856 ft 573 kts 78°
2026-05-04 18:51 40.01201 -102.57571 34862 ft 568 kts 78°
2026-05-04 18:52 40.02266 -102.47410 34847 ft 567 kts 78°
2026-05-04 18:52 40.03343 -102.37091 34874 ft 585 kts 78°
2026-05-04 18:53 40.04437 -102.26489 34829 ft 590 kts 78°
2026-05-04 18:53 40.05520 -102.15871 34828 ft 591 kts 79°
2026-05-04 18:54 40.06589 -102.05306 34822 ft 591 kts 78°
2026-05-04 18:54 40.07653 -101.94682 34826 ft 588 kts 79°
2026-05-04 18:55 40.08701 -101.84135 34797 ft 589 kts 79°
2026-05-04 18:55 40.10255 -101.68292 34823 ft 587 kts 79°
2026-05-04 18:56 40.11276 -101.57769 34824 ft 585 kts 79°
2026-05-04 18:56 40.12290 -101.47220 34818 ft 586 kts 79°
2026-05-04 18:57 40.13230 -101.36649 34812 ft 585 kts 83°
2026-05-04 18:57 40.13640 -101.26060 34791 ft 586 kts 84°
2026-05-04 18:58 40.13999 -101.15435 34805 ft 587 kts 85°
2026-05-04 18:58 40.14347 -101.04874 34799 ft 584 kts 85°
2026-05-04 18:59 40.14686 -100.94290 34810 ft 583 kts 85°
2026-05-04 18:59 40.15016 -100.83722 34805 ft 586 kts 85°
2026-05-04 19:00 40.15337 -100.73121 34815 ft 584 kts 85°
2026-05-04 19:00 40.15645 -100.62595 34772 ft 580 kts 85°
2026-05-04 19:01 40.15945 -100.52088 34795 ft 582 kts 85°
2026-05-04 19:01 40.16236 -100.41512 34789 ft 580 kts 85°
2026-05-04 19:02 40.16517 -100.31007 34743 ft 579 kts 86°
2026-05-04 19:02 40.16787 -100.20529 34749 ft 581 kts 86°
2026-05-04 19:03 40.17048 -100.10005 34757 ft 578 kts 86°
2026-05-04 19:03 40.17298 -99.99576 34753 ft 578 kts 86°
2026-05-04 19:04 40.17541 -99.89047 34755 ft 578 kts 86°
2026-05-04 19:04 40.17771 -99.78651 34756 ft 576 kts 86°
2026-05-04 19:05 40.17993 -99.68224 34766 ft 574 kts 86°
2026-05-04 19:05 40.18205 -99.57801 34780 ft 574 kts 86°
2026-05-04 19:06 40.18407 -99.47412 34771 ft 573 kts 86°
2026-05-04 19:06 40.18599 -99.37080 34778 ft 571 kts 86°
2026-05-04 19:07 40.18781 -99.26756 34775 ft 569 kts 87°
2026-05-04 19:07 40.18955 -99.16424 34764 ft 570 kts 87°
2026-05-04 19:08 40.19118 -99.06118 34795 ft 567 kts 87°
2026-05-04 19:08 40.19273 -98.95814 34695 ft 568 kts 87°
2026-05-04 19:09 40.19418 -98.85580 34756 ft 566 kts 87°
2026-05-04 19:09 40.19554 -98.75326 34739 ft 564 kts 87°
2026-05-04 19:10 40.19681 -98.65064 34735 ft 567 kts 87°
2026-05-04 19:10 40.19798 -98.54882 34737 ft 564 kts 88°
2026-05-04 19:11 40.19906 -98.44649 34738 ft 565 kts 87°
2026-05-04 19:11 40.20006 -98.34361 34742 ft 563 kts 88°
2026-05-04 19:12 40.20138 -98.19132 34731 ft 562 kts 88°
2026-05-04 19:13 40.20214 -98.08946 34739 ft 561 kts 88°
2026-05-04 19:13 40.20282 -97.98766 34725 ft 562 kts 88°
2026-05-04 19:14 40.20340 -97.88649 34725 ft 560 kts 88°
2026-05-04 19:14 40.20391 -97.78400 34722 ft 562 kts 88°
2026-05-04 19:15 40.20432 -97.68244 34729 ft 564 kts 88°
2026-05-04 19:15 40.20464 -97.58037 34726 ft 561 kts 88°
2026-05-04 19:16 40.20487 -97.47874 34719 ft 562 kts 88°
2026-05-04 19:16 40.20501 -97.37695 34717 ft 561 kts 88°
2026-05-04 19:17 40.20507 -97.27515 34694 ft 562 kts 89°
2026-05-04 19:17 40.20503 -97.17368 34692 ft 561 kts 89°
2026-05-04 19:18 40.20491 -97.07180 34685 ft 560 kts 89°
2026-05-04 19:18 40.20469 -96.97028 34689 ft 561 kts 89°
2026-05-04 19:19 40.20439 -96.86842 34701 ft 561 kts 89°
2026-05-04 19:19 40.20399 -96.76653 34705 ft 562 kts 89°
2026-05-04 19:20 40.20351 -96.66433 34707 ft 561 kts 88°
2026-05-04 19:20 40.20294 -96.56292 34713 ft 559 kts 89°
2026-05-04 19:21 40.20229 -96.46175 34715 ft 558 kts 89°
2026-05-04 19:21 40.20154 -96.36052 34706 ft 559 kts 89°
2026-05-04 19:22 40.20071 -96.25941 34693 ft 559 kts 89°
2026-05-04 19:22 40.19997 -96.15766 34693 ft 558 kts 89°
2026-05-04 19:23 40.19968 -96.05634 34695 ft 558 kts 89°
2026-05-04 19:23 40.19929 -95.95562 34689 ft 557 kts 89°
2026-05-04 19:24 40.19880 -95.85422 34686 ft 558 kts 89°
2026-05-04 19:24 40.19821 -95.75349 34677 ft 556 kts 89°
2026-05-04 19:25 40.19753 -95.65254 34677 ft 557 kts 89°
2026-05-04 19:25 40.19677 -95.55198 34673 ft 556 kts 89°
2026-05-04 19:26 40.19590 -95.45043 34670 ft 556 kts 88°
2026-05-04 19:26 40.19495 -95.34991 34671 ft 556 kts 89°
2026-05-04 19:27 40.19391 -95.24857 34667 ft 556 kts 89°
2026-05-04 19:27 40.19279 -95.14848 34675 ft 555 kts 89°
2026-05-04 19:28 40.19159 -95.04812 34677 ft 553 kts 89°
2026-05-04 19:28 40.19030 -94.94796 34685 ft 553 kts 89°
2026-05-04 19:29 40.18892 -94.84750 34685 ft 551 kts 89°
2026-05-04 19:29 40.18746 -94.74747 34687 ft 552 kts 89°
2026-05-04 19:30 40.18592 -94.64796 34687 ft 551 kts 89°
2026-05-04 19:30 40.18429 -94.54800 34683 ft 549 kts 89°
2026-05-04 19:31 40.18258 -94.44855 34681 ft 550 kts 89°
2026-05-04 19:31 40.18079 -94.34953 34674 ft 549 kts 90°
2026-05-04 19:32 40.17891 -94.24968 34669 ft 550 kts 90°
2026-05-04 19:32 40.17695 -94.15035 34671 ft 550 kts 90°
2026-05-04 19:33 40.17489 -94.05068 34668 ft 549 kts 90°
2026-05-04 19:33 40.17273 -93.95031 34658 ft 548 kts 90°
2026-05-04 19:34 40.17052 -93.85129 34663 ft 548 kts 90°
2026-05-04 19:34 40.16822 -93.75190 34670 ft 547 kts 90°
2026-05-04 19:35 40.16584 -93.65293 34670 ft 546 kts 90°
2026-05-04 19:35 40.16337 -93.55363 34668 ft 548 kts 90°
2026-05-04 19:36 40.16083 -93.45520 34673 ft 546 kts 90°
2026-05-04 19:36 40.15819 -93.35583 34676 ft 546 kts 90°
2026-05-04 19:37 40.15547 -93.25682 34664 ft 547 kts 90°
2026-05-04 19:37 40.15267 -93.15783 34659 ft 547 kts 90°
2026-05-04 19:38 40.14979 -93.05930 34661 ft 547 kts 90°
2026-05-04 19:38 40.14681 -92.95989 34670 ft 547 kts 91°
2026-05-04 19:39 40.14376 -92.86100 34668 ft 545 kts 90°
2026-05-04 19:39 40.14063 -92.76260 34672 ft 546 kts 90°
2026-05-04 19:40 40.13750 -92.66378 34698 ft 547 kts 89°
2026-05-04 19:40 40.14653 -92.56652 34691 ft 538 kts 71°
2026-05-04 19:41 40.17416 -92.47714 34701 ft 531 kts 60°
2026-05-04 19:41 40.20640 -92.39082 34689 ft 529 kts 60°
2026-05-04 19:42 40.23823 -92.30429 34666 ft 533 kts 61°
2026-05-04 19:42 40.26984 -92.21733 34668 ft 531 kts 61°
2026-05-04 19:43 40.30135 -92.12998 34665 ft 531 kts 61°
2026-05-04 19:43 40.33268 -92.04260 34663 ft 531 kts 62°
2026-05-04 19:44 40.36400 -91.95484 34665 ft 529 kts 62°
2026-05-04 19:44 40.39508 -91.86745 34677 ft 531 kts 62°
2026-05-04 19:45 40.42611 -91.77985 34665 ft 529 kts 62°
2026-05-04 19:45 40.45616 -91.69195 34674 ft 531 kts 63°
2026-05-04 19:46 40.48602 -91.60368 34665 ft 529 kts 63°
2026-05-04 19:46 40.51595 -91.51502 34665 ft 531 kts 63°
2026-05-04 19:47 40.54573 -91.42656 34672 ft 529 kts 63°
2026-05-04 19:47 40.57556 -91.33875 34674 ft 530 kts 63°
2026-05-04 19:48 40.60591 -91.25008 34655 ft 529 kts 63°
2026-05-04 19:48 40.63589 -91.16218 34668 ft 530 kts 63°
2026-05-04 19:49 40.66591 -91.07388 34663 ft 531 kts 63°
2026-05-04 19:49 40.69594 -90.98524 34658 ft 530 kts 63°
2026-05-04 19:50 40.72585 -90.89665 34667 ft 530 kts 63°
2026-05-04 19:50 40.75557 -90.80834 34653 ft 529 kts 63°
2026-05-04 19:51 40.78535 -90.71957 34665 ft 529 kts 63°
2026-05-04 19:51 40.80006 -90.67561 34561 ft 520 kts 63°
2026-05-04 19:51 40.81450 -90.63238 33900 ft 519 kts 63°
2026-05-04 19:51 40.82901 -90.58890 32838 ft 526 kts 63°
2026-05-04 19:52 40.84378 -90.54479 31774 ft 530 kts 63°
2026-05-04 19:52 40.85866 -90.50030 31128 ft 524 kts 63°
2026-05-04 19:52 40.87322 -90.45667 30796 ft 514 kts 63°
2026-05-04 19:52 40.88741 -90.41406 30364 ft 507 kts 63°
2026-05-04 19:53 40.90145 -90.37188 29791 ft 503 kts 63°
2026-05-04 19:53 40.91547 -90.32971 29107 ft 501 kts 64°
2026-05-04 19:53 40.92952 -90.28735 28401 ft 499 kts 64°
2026-05-04 19:53 40.94334 -90.24564 27783 ft 496 kts 64°
2026-05-04 19:54 40.95694 -90.20455 27190 ft 492 kts 64°
2026-05-04 19:54 40.97063 -90.16308 26596 ft 488 kts 64°
2026-05-04 19:54 40.98403 -90.12247 25947 ft 486 kts 64°
2026-05-04 19:54 40.99740 -90.08187 25328 ft 482 kts 64°
2026-05-04 19:55 41.01080 -90.04112 24707 ft 479 kts 64°
2026-05-04 19:55 41.02387 -90.00132 24078 ft 476 kts 64°
2026-05-04 19:55 41.03696 -89.96139 23520 ft 471 kts 64°
2026-05-04 19:55 41.05002 -89.92189 22939 ft 467 kts 64°
2026-05-04 19:56 41.06302 -89.88262 22323 ft 464 kts 64°
2026-05-04 19:56 41.07578 -89.84403 21780 ft 460 kts 64°
2026-05-04 19:56 41.08842 -89.80567 21665 ft 450 kts 64°
2026-05-04 19:56 41.10099 -89.76753 21655 ft 456 kts 64°
2026-05-04 19:57 41.11371 -89.72890 21651 ft 455 kts 64°
2026-05-04 19:57 41.12631 -89.69051 21652 ft 454 kts 64°
2026-05-04 19:57 41.13882 -89.65236 21648 ft 455 kts 64°
2026-05-04 19:57 41.15205 -89.61423 21644 ft 454 kts 58°
2026-05-04 19:58 41.16910 -89.57951 21634 ft 451 kts 48°
2026-05-04 19:58 41.19001 -89.54856 21181 ft 454 kts 41°
2026-05-04 19:58 41.21242 -89.51956 20614 ft 450 kts 40°
2026-05-04 19:58 41.23492 -89.49071 20141 ft 444 kts 40°
2026-05-04 19:59 41.25696 -89.46241 19710 ft 438 kts 40°
2026-05-04 19:59 41.27874 -89.43473 19246 ft 433 kts 39°
2026-05-04 19:59 41.30056 -89.40753 18690 ft 431 kts 39°
2026-05-04 19:59 41.32227 -89.38045 18144 ft 429 kts 39°
2026-05-04 20:00 41.34381 -89.35352 17608 ft 426 kts 39°
2026-05-04 20:00 41.36528 -89.32662 17072 ft 423 kts 39°
2026-05-04 20:00 41.38666 -89.29980 16601 ft 418 kts 39°
2026-05-04 20:00 41.40760 -89.27348 16309 ft 418 kts 39°
2026-05-04 20:01 41.42889 -89.24672 15851 ft 421 kts 39°
2026-05-04 20:01 41.45068 -89.22127 15352 ft 415 kts 32°
2026-05-04 20:01 41.47485 -89.20138 14854 ft 405 kts 21°
2026-05-04 20:01 41.50059 -89.18797 14407 ft 394 kts 11°
2026-05-04 20:02 41.52681 -89.17811 13960 ft 390 kts
2026-05-04 20:02 41.55314 -89.16854 13503 ft 388 kts
2026-05-04 20:02 41.57904 -89.15918 13063 ft 388 kts
2026-05-04 20:02 41.60506 -89.14978 12621 ft 384 kts
2026-05-04 20:03 41.63042 -89.14062 12197 ft 380 kts 10°
2026-05-04 20:03 41.65594 -89.13142 11807 ft 376 kts 10°
2026-05-04 20:03 41.68109 -89.12237 11725 ft 376 kts 10°
2026-05-04 20:03 41.70623 -89.11333 11652 ft 377 kts 10°
2026-05-04 20:04 41.73145 -89.10308 11539 ft 379 kts 15°
2026-05-04 20:04 41.75613 -89.09032 11414 ft 378 kts 17°
2026-05-04 20:04 41.78063 -89.07740 11281 ft 378 kts 17°
2026-05-04 20:04 41.80507 -89.06440 11145 ft 378 kts 19°
2026-05-04 20:05 41.82815 -89.04737 11014 ft 382 kts 30°
2026-05-04 20:05 41.84976 -89.02704 10901 ft 382 kts 32°
2026-05-04 20:05 41.87128 -89.00638 10778 ft 381 kts 32°
2026-05-04 20:05 41.89310 -88.98541 10649 ft 380 kts 32°
2026-05-04 20:06 41.91444 -88.96489 10523 ft 378 kts 32°
2026-05-04 20:06 41.93523 -88.94336 10438 ft 379 kts 39°
2026-05-04 20:06 41.95275 -88.91705 10423 ft 385 kts 51°
2026-05-04 20:06 41.96622 -88.88593 10416 ft 388 kts 64°
2026-05-04 20:07 41.97477 -88.85126 10411 ft 389 kts 77°
2026-05-04 20:07 41.97777 -88.81529 10406 ft 389 kts 90°
2026-05-04 20:07 41.97524 -88.77950 10404 ft 388 kts 103°
2026-05-04 20:07 41.96733 -88.74520 10395 ft 386 kts 115°
2026-05-04 20:08 41.95441 -88.71363 10388 ft 383 kts 125°
2026-05-04 20:08 41.94131 -88.68256 10399 ft 385 kts 117°
2026-05-04 20:08 41.93180 -88.64915 10403 ft 387 kts 108°
2026-05-04 20:08 41.92497 -88.61393 10407 ft 389 kts 104°
2026-05-04 20:09 41.91992 -88.57828 10413 ft 390 kts 99°
2026-05-04 20:09 41.91635 -88.54250 10418 ft 390 kts 97°
2026-05-04 20:09 41.91375 -88.50616 10423 ft 390 kts 95°
2026-05-04 20:09 41.91174 -88.46990 10427 ft 391 kts 94°
2026-05-04 20:10 41.91010 -88.43366 10434 ft 391 kts 93°
2026-05-04 20:10 41.90872 -88.39737 10443 ft 392 kts 93°
2026-05-04 20:10 41.90750 -88.36080 10446 ft 391 kts 92°
2026-05-04 20:10 41.90640 -88.32423 10441 ft 391 kts 93°
2026-05-04 20:11 41.90537 -88.28765 10438 ft 393 kts 93°
2026-05-04 20:11 41.90439 -88.25128 10433 ft 392 kts 93°
2026-05-04 20:11 41.90343 -88.21455 10434 ft 393 kts 93°
2026-05-04 20:11 41.90248 -88.17768 10428 ft 394 kts 92°
2026-05-04 20:12 41.90156 -88.14116 10419 ft 394 kts 92°
2026-05-04 20:12 41.90064 -88.10480 10413 ft 394 kts 92°
2026-05-04 20:12 41.89970 -88.06811 10415 ft 394 kts 92°
2026-05-04 20:12 41.89875 -88.03110 10411 ft 394 kts 92°
2026-05-04 20:13 41.89781 -87.99474 10415 ft 393 kts 92°
2026-05-04 20:13 41.89687 -87.95844 10413 ft 393 kts 92°
2026-05-04 20:13 41.89590 -87.92165 10407 ft 392 kts 92°
2026-05-04 20:13 41.89493 -87.88532 10402 ft 394 kts 92°
2026-05-04 20:14 41.89395 -87.84897 10402 ft 393 kts 92°
2026-05-04 20:14 41.89296 -87.81229 10406 ft 393 kts 92°
2026-05-04 20:14 41.89196 -87.77612 10408 ft 393 kts 92°
2026-05-04 20:14 41.89095 -87.73960 10417 ft 393 kts 92°
2026-05-04 20:15 41.88992 -87.70335 10420 ft 392 kts 92°
2026-05-04 20:15 41.88912 -87.66637 10420 ft 393 kts 89°
2026-05-04 20:15 41.89222 -87.63038 10428 ft 392 kts 77°
2026-05-04 20:15 41.90025 -87.59637 10370 ft 376 kts 64°
2026-05-04 20:16 41.91278 -87.56631 10271 ft 357 kts 50°
2026-05-04 20:16 41.92930 -87.54319 10159 ft 336 kts 32°
2026-05-04 20:16 41.94884 -87.52851 10054 ft 312 kts 13°
2026-05-04 20:16 41.96913 -87.52218 9963 ft 290 kts 358°
2026-05-04 20:17 41.98893 -87.52259 9318 ft 290 kts 341°
2026-05-04 20:17 42.00663 -87.53377 8668 ft 279 kts 312°
2026-05-04 20:17 42.01682 -87.55460 8217 ft 266 kts 280°
2026-05-04 20:17 42.01671 -87.57917 7619 ft 268 kts 254°
2026-05-04 20:18 42.00945 -87.60302 6441 ft 296 kts 244°
2026-05-04 20:18 42.00009 -87.62816 5521 ft 305 kts 244°
2026-05-04 20:18 41.99177 -87.65417 4968 ft 303 kts 251°
2026-05-04 20:18 41.98732 -87.68092 4605 ft 295 kts 263°
2026-05-04 20:19 41.98666 -87.70826 4149 ft 292 kts 270°
2026-05-04 20:19 41.98766 -87.73520 3654 ft 289 kts 270°
2026-05-04 20:19 41.98828 -87.76154 3630 ft 269 kts 270°
2026-05-04 20:19 41.98864 -87.78568 3397 ft 260 kts 268°
2026-05-04 20:20 41.98850 -87.80960 2775 ft 257 kts 267°
2026-05-04 20:20 41.98827 -87.83295 1943 ft 252 kts 268°
2026-05-04 20:20 41.98828 -87.85567 1422 ft 239 kts 268°
2026-05-04 20:20 41.98833 -87.87746 993 ft 228 kts 269°
2026-05-04 20:21 41.98830 -87.89812 698 ft 211 kts 267°
2026-05-04 20:21 41.98842 -87.91489 668 ft 110 kts 271°
2026-05-04 20:21 41.98842 -87.92364 677 ft 12 kts 300°
2026-05-04 20:22 41.98927 -87.92410 677 ft 15 kts
2026-05-04 20:22 41.98994 -87.92336 677 ft 12 kts 81°
2026-05-04 20:22 41.98996 -87.92202 677 ft 15 kts 91°
2026-05-04 20:22 41.98991 -87.92039 675 ft 19 kts 91°
2026-05-04 20:23 41.98996 -87.91832 674 ft 25 kts 88°
2026-05-04 20:23 41.98997 -87.91542 669 ft 36 kts 91°
2026-05-04 20:23 41.98992 -87.91164 662 ft 44 kts 91°
2026-05-04 20:23 41.98995 -87.90837 662 ft 33 kts 88°
2026-05-04 20:24 41.98993 -87.90502 661 ft 38 kts 90°
2026-05-04 20:24 41.98995 -87.90192 661 ft 22 kts 87°
2026-05-04 20:24 41.99004 -87.90083 661 ft 6 kts 62°
2026-05-04 20:24 41.99059 -87.90045 661 ft 11 kts
2026-05-04 20:25 41.99150 -87.90045 661 ft 14 kts 360°
2026-05-04 20:25 41.99253 -87.90002 661 ft 17 kts 34°
2026-05-04 20:25 41.99359 -87.89890 661 ft 20 kts 40°
2026-05-04 20:25 41.99475 -87.89754 658 ft 11 kts 44°
2026-05-04 20:26 41.99510 -87.89647 658 ft 14 kts 86°
2026-05-04 20:26 41.99500 -87.89493 658 ft 16 kts 93°
2026-05-04 20:26 41.99499 -87.89384 658 ft 7 kts 91°
2026-05-04 20:26 41.99475 -87.89328 658 ft 6 kts 158°
2026-05-04 20:27 41.99432 -87.89329 658 ft 0 kts 180°
2026-05-04 20:27 41.99424 -87.89328 658 ft 0 kts 179°